Starlink 5448

operational
NORAD ID: 54770 Int'l Des: 2022-175 Owner: SPXS Country: US Constellation: starlink
LEOCIRCULAR

About Starlink 5448

Description loading...

Live Position

Loading 3D Globe...

Upcoming Passes

Altitude History

Altitude vs Time

uPlot chart will show altitude changes over time

Two-Line Element Set

1 54770U 22175N 25256.87303791 .00000510 00000-0 50113-4 0 9998
2 54770 53.2161 103.0647 0001336 90.6552 269.4593 15.08835982153437
Epoch: Sep 13, 2025 • Age: 37 hours

Current Status

Altitude 542.3 km
Velocity 7.59 km/s
Sub-Earth Point -8.25°S, 46.64°W
Launch Date Dec 17, 2022
Age 2.7 years
Type internet

Technical Details

Classification Payload
Mass 305.00 kg
Dry Mass 290.00 kg
Total Mass 305.00 kg
Length 0.20 m
Diameter 2.80 m
Span 9.00 m
Shape Box + pan
Manufacturer SPXS
Bus Type Starlink
Phase Status In Orbit
Owner/State SPXS/US

Large Constellations

Loading constellations...